| time (UTC) | temp F | wind direction | speed MPH | gust MPH | rain 1hr in | rain 24hr in | rain mn in | humidity % | barometer mb |
| 20260906052101 | 56 | 49 | 0.0 | 0.0 | 0.00 | 0.00 | 0.00 | 1 | 1016.2 |
| 20260906051554 | 57 | 48 | 0.0 | 0.0 | 0.00 | 0.00 | 0.00 | 1 | 1016.2 |
| 20260906051055 | 57 | 49 | 0.0 | 0.0 | 0.00 | 0.00 | 0.00 | 1 | 1016.2 |
| 20260906050555 | 57 | 49 | 0.0 | 0.0 | 0.00 | 0.00 | 0.00 | 1 | 1016.2 |
| 20260906050050 | 57 | 46 | 0.0 | 0.0 | 0.00 | 0.00 | 0.00 | 1 | 1016.2 |
| 20260906045553 | 57 | 46 | 0.0 | 0.0 | 0.00 | 0.00 | 0.00 | 1 | 1016.3 |
| 20260906045047 | 57 | 49 | 0.0 | 2.0 | 0.00 | 0.00 | 0.00 | 1 | 1016.3 |
| 20260906044545 | 57 | 70 | 0.0 | 0.0 | 0.00 | 0.00 | 0.00 | 1 | 1016.2 |
| 20260906044043 | 57 | 70 | 0.0 | 0.0 | 0.00 | 0.00 | 0.00 | 1 | 1016.1 |
| 20260906043040 | 58 | 70 | 0.0 | 1.0 | 0.00 | 0.00 | 0.00 | 1 | 1016.2 |
| 20260906042017 | 58 | 310 | 0.0 | 0.0 | 0.00 | 0.00 | 0.00 | 1 | 1016.2 |
| 20260906041044 | 58 | 310 | 0.0 | 0.0 | 0.00 | 0.00 | 0.00 | 1 | 1016.2 |
| 20260906040042 | 58 | 116 | 0.0 | 1.0 | 0.00 | 0.00 | 0.00 | 1 | 1016.1 |
| 20260906035541 | 58 | 115 | 0.0 | 1.0 | 0.00 | 0.00 | 0.00 | 1 | 1016.0 |
| 20260906035039 | 58 | 115 | 0.0 | 0.0 | 0.00 | 0.00 | 0.00 | 1 | 1016.1 |
| 20260906034543 | 58 | 116 | 0.0 | 0.0 | 0.00 | 0.00 | 0.00 | 1 | 1016.0 |
| 20260906034035 | 59 | 115 | 0.0 | 0.0 | 0.00 | 0.00 | 0.00 | 1 | 1016.0 |
| 20260906033036 | 59 | 116 | 0.0 | 0.0 | 0.00 | 0.00 | 0.00 | 1 | 1015.9 |
| 20260906032531 | 59 | 116 | 0.0 | 0.0 | 0.00 | 0.00 | 0.00 | 1 | 1015.8 |
| 20260906032030 | 59 | 116 | 0.0 | 0.0 | 0.00 | 0.00 | 0.00 | 1 | 1015.8 |
| 20260906031536 | 59 | 115 | 0.0 | 0.0 | 0.00 | 0.00 | 0.00 | 1 | 1015.9 |
| 20260906031028 | 59 | 116 | 0.0 | 0.0 | 0.00 | 0.00 | 0.00 | 1 | 1015.9 |
| 20260906030527 | 59 | 116 | 0.0 | 0.0 | 0.00 | 0.00 | 0.00 | 1 | 1015.8 |
| 20260906030032 | 59 | 115 | 0.0 | 0.0 | 0.00 | 0.00 | 0.00 | 1 | 1015.8 |
| 20260906025524 | 59 | 115 | 0.0 | 0.0 | 0.00 | 0.00 | 0.00 | 1 | 1015.9 |
| 20260906025022 | 59 | 114 | 0.0 | 0.0 | 0.00 | 0.00 | 0.00 | 1 | 1015.9 |
| 20260906024521 | 59 | 233 | 0.0 | 0.0 | 0.00 | 0.00 | 0.00 | 1 | 1016.0 |
| 20260906024018 | 59 | 233 | 0.0 | 0.0 | 0.00 | 0.00 | 0.00 | 1 | 1016.0 |
| 20260906023517 | 59 | 233 | 0.0 | 0.0 | 0.00 | 0.00 | 0.00 | 1 | 1016.0 |
| 20260906023018 | 59 | 58 | 0.0 | 0.0 | 0.00 | 0.00 | 0.00 | 1 | 1016.0 |
| 20260906022514 | 59 | 58 | 0.0 | 0.0 | 0.00 | 0.00 | 0.00 | 1 | 1016.0 |
| 20260906022013 | 59 | 58 | 0.0 | 2.0 | 0.00 | 0.00 | 0.00 | 1 | 1016.0 |
| 20260906021512 | 60 | 63 | 0.0 | 1.0 | 0.00 | 0.00 | 0.00 | 1 | 1016.0 |
| 20260906021040 | 60 | 51 | 0.0 | 0.0 | 0.00 | 0.00 | 0.00 | 1 | 1016.0 |
| 20260906020539 | 60 | 53 | 0.0 | 0.0 | 0.00 | 0.00 | 0.00 | 1 | 1016.1 |
| 20260906020038 | 61 | 53 | 0.0 | 0.0 | 0.00 | 0.00 | 0.00 | 1 | 1016.2 |
| 20260906015536 | 61 | 53 | 0.0 | 0.0 | 0.00 | 0.00 | 0.00 | 1 | 1016.1 |
| 20260906015035 | 61 | 52 | 0.0 | 1.0 | 0.00 | 0.00 | 0.00 | 1 | 1016.1 |
| 20260906014543 | 61 | 52 | 0.0 | 2.0 | 0.00 | 0.00 | 0.00 | 1 | 1016.1 |
| 20260906014014 | 62 | 60 | 0.0 | 2.0 | 0.00 | 0.00 | 0.00 | 1 | 1016.1 |
| 20260906013515 | 62 | 224 | 0.0 | 0.0 | 0.00 | 0.00 | 0.00 | 1 | 1016.1 |
| 20260906013016 | 62 | 224 | 0.0 | 1.0 | 0.00 | 0.00 | 0.00 | 1 | 1016.2 |
| 20260906012511 | 63 | 225 | 0.0 | 2.0 | 0.00 | 0.00 | 0.00 | 1 | 1016.2 |
| 20260906012008 | 63 | 174 | 0.0 | 2.0 | 0.00 | 0.00 | 0.00 | 1 | 1016.2 |
| 20260906011506 | 63 | 347 | 0.0 | 1.0 | 0.00 | 0.00 | 0.00 | 1 | 1016.3 |
| 20260906011048 | 63 | 232 | 0.0 | 1.0 | 0.00 | 0.00 | 0.00 | 1 | 1016.2 |
| 20260906010653 | 63 | 229 | 0.0 | 2.0 | 0.00 | 0.00 | 0.00 | 1 | 1016.2 |
| 20260906010115 | 63 | 287 | 0.0 | 1.0 | 0.00 | 0.00 | 0.00 | 1 | 1016.3 |
| 20260906005545 | 64 | 139 | 0.0 | 7.0 | 0.00 | 0.00 | 0.00 | 1 | 1016.2 |
| 20260906005043 | 64 | 81 | 0.0 | 7.0 | 0.00 | 0.00 | 0.00 | 1 | 1016.2 |
| 20260906004546 | 65 | 267 | 0.0 | 5.0 | 0.00 | 0.00 | 0.00 | 1 | 1016.2 |
| 20260906004040 | 65 | 336 | 1.0 | 5.0 | 0.00 | 0.00 | 0.00 | 1 | 1016.1 |
| 20260906003042 | 66 | 256 | 0.0 | 2.0 | 0.00 | 0.00 | 0.00 | 4 | 1016.2 |
| 20260906002035 | 65 | 56 | 0.0 | 2.0 | 0.00 | 0.00 | 0.00 | 8 | 1016.2 |
| 20260906001032 | 65 | 60 | 0.0 | 2.0 | 0.00 | 0.00 | 0.00 | 4 | 1016.2 |
| 20260906000531 | 65 | 75 | 0.0 | 2.0 | 0.00 | 0.00 | 0.00 | 5 | 1016.1 |
| 20260906000028 | 65 | 290 | 0.0 | 0.0 | 0.00 | 0.00 | 0.00 | 1 | 1016.2 |
| 20260905235527 | 65 | 274 | 0.0 | 1.0 | 0.00 | 0.00 | 0.00 | 1 | 1016.3 |
| 20260905235028 | 65 | 356 | 0.0 | 2.0 | 0.00 | 0.00 | 0.00 | 1 | 1016.3 |
| 20260905234627 | 64 | 329 | 0.0 | 4.0 | 0.00 | 0.00 | 0.00 | 1 | 1016.4 |
| 20260905234030 | 64 | 301 | 0.0 | 4.0 | 0.00 | 0.00 | 0.00 | 1 | 1016.5 |
| 20260905233648 | 64 | 41 | 1.0 | 4.0 | 0.00 | 0.00 | 0.00 | 1 | 1016.6 |
| 20260905233025 | 64 | 30 | 0.0 | 5.0 | 0.00 | 0.00 | 0.00 | 1 | 1016.5 |
| 20260905232644 | 65 | 301 | 2.0 | 5.0 | 0.00 | 0.00 | 0.00 | 1 | 1016.5 |
| 20260905232022 | 65 | 39 | 0.0 | 5.0 | 0.00 | 0.00 | 0.00 | 1 | 1016.4 |
| 20260905231650 | 65 | 46 | 1.0 | 5.0 | 0.00 | 0.00 | 0.00 | 1 | 1016.3 |
| 20260905231018 | 66 | 77 | 0.0 | 1.0 | 0.00 | 0.00 | 0.00 | 1 | 1016.3 |
| 20260905230517 | 66 | 291 | 0.0 | 1.0 | 0.00 | 0.00 | 0.00 | 1 | 1016.3 |
| 20260905230015 | 67 | 298 | 0.0 | 1.0 | 0.00 | 0.00 | 0.00 | 1 | 1016.3 |
| 20260905225514 | 67 | 287 | 0.0 | 5.0 | 0.00 | 0.00 | 0.00 | 1 | 1016.3 |
| 20260905225012 | 67 | 274 | 1.0 | 5.0 | 0.00 | 0.00 | 0.00 | 6 | 1016.3 |
| 20260905224611 | 67 | 40 | 0.0 | 5.0 | 0.00 | 0.00 | 0.00 | 17 | 1016.3 |
| 20260905224051 | 67 | 297 | 0.0 | 3.0 | 0.00 | 0.00 | 0.00 | 20 | 1016.3 |
| 20260905223614 | 67 | 281 | 0.0 | 3.0 | 0.00 | 0.00 | 0.00 | 28 | 1016.2 |
| 20260905223049 | 67 | 278 | 0.0 | 2.0 | 0.00 | 0.00 | 0.00 | 27 | 1016.2 |
| 20260905222547 | 67 | 253 | 0.0 | 3.0 | 0.00 | 0.00 | 0.00 | 34 | 1016.1 |
| 20260905222045 | 67 | 263 | 0.0 | 4.0 | 0.00 | 0.00 | 0.00 | 35 | 1016.2 |
| 20260905221551 | 68 | 246 | 2.0 | 4.0 | 0.00 | 0.00 | 0.00 | 35 | 1016.1 |
| 20260905220551 | 68 | 240 | 2.0 | 6.0 | 0.00 | 0.00 | 0.00 | 35 | 1016.2 |
| 20260905215550 | 70 | 212 | 2.0 | 5.0 | 0.00 | 0.00 | 0.00 | 34 | 1016.2 |
| 20260905214544 | 70 | 84 | 0.0 | 4.0 | 0.00 | 0.00 | 0.00 | 32 | 1016.2 |
| 20260905214046 | 70 | 211 | 0.0 | 4.0 | 0.00 | 0.00 | 0.00 | 31 | 1016.2 |
| 20260905213542 | 70 | 65 | 0.0 | 4.0 | 0.00 | 0.00 | 0.00 | 30 | 1016.2 |
| 20260905213051 | 69 | 229 | 0.0 | 4.0 | 0.00 | 0.00 | 0.00 | 29 | 1016.2 |
| 20260905212539 | 70 | 207 | 0.0 | 3.0 | 0.00 | 0.00 | 0.00 | 29 | 1016.3 |
| 20260905212038 | 69 | 204 | 0.0 | 3.0 | 0.00 | 0.00 | 0.00 | 27 | 1016.3 |
| 20260905211544 | 70 | 243 | 0.0 | 3.0 | 0.00 | 0.00 | 0.00 | 27 | 1016.3 |
| 20260905210558 | 69 | 200 | 0.0 | 1.0 | 0.00 | 0.00 | 0.00 | 22 | 1016.4 |
| 20260905210057 | 68 | 60 | 0.0 | 1.0 | 0.00 | 0.00 | 0.00 | 23 | 1016.4 |
| 20260905205554 | 67 | 75 | 0.0 | 2.0 | 0.00 | 0.00 | 0.00 | 21 | 1016.5 |
| 20260905205055 | 67 | 235 | 0.0 | 3.0 | 0.00 | 0.00 | 0.00 | 21 | 1016.5 |
| 20260905204552 | 67 | 68 | 1.0 | 3.0 | 0.00 | 0.00 | 0.00 | 22 | 1016.5 |
| 20260905204052 | 67 | 63 | 1.0 | 3.0 | 0.00 | 0.00 | 0.00 | 21 | 1016.5 |
| 20260905203551 | 66 | 89 | 1.0 | 3.0 | 0.00 | 0.00 | 0.00 | 17 | 1016.6 |
| 20260905203057 | 66 | 207 | 0.0 | 2.0 | 0.00 | 0.00 | 0.00 | 12 | 1016.6 |
| 20260905202549 | 67 | 72 | 0.0 | 3.0 | 0.00 | 0.00 | 0.00 | 2 | 1016.6 |
| 20260905202047 | 66 | 82 | 0.0 | 3.0 | 0.00 | 0.00 | 0.00 | 10 | 1016.7 |
| 20260905201557 | 66 | 106 | 0.0 | 2.0 | 0.00 | 0.00 | 0.00 | 11 | 1016.7 |
| 20260905201044 | 66 | 308 | 0.0 | 2.0 | 0.00 | 0.00 | 0.00 | 11 | 1016.7 |
| 20260905200525 | 66 | 191 | 1.0 | 2.0 | 0.00 | 0.00 | 0.00 | 14 | 1016.7 |
| 20260905200024 | 66 | 199 | 0.0 | 0.0 | 0.00 | 0.00 | 0.00 | 18 | 1016.7 |
| 20260905195526 | 67 | 60 | 0.0 | 0.0 | 0.00 | 0.00 | 0.00 | 21 | 1016.8 |
| 20260905195026 | 67 | 211 | 0.0 | 0.0 | 0.00 | 0.00 | 0.00 | 23 | 1016.8 |
| 20260905194520 | 67 | 181 | 0.0 | 0.0 | 0.00 | 0.00 | 0.00 | 21 | 1016.8 |
| 20260905194019 | 67 | 46 | 0.0 | 2.0 | 0.00 | 0.00 | 0.00 | 20 | 1016.9 |
| 20260905193600 | 67 | 81 | 0.0 | 3.0 | 0.00 | 0.00 | 0.00 | 22 | 1016.9 |
| 20260905193058 | 67 | 66 | 0.0 | 3.0 | 0.00 | 0.00 | 0.00 | 22 | 1016.9 |
| 20260905192557 | 67 | 33 | 0.0 | 3.0 | 0.00 | 0.00 | 0.00 | 23 | 1017.0 |
| 20260905192056 | 68 | 68 | 0.0 | 2.0 | 0.00 | 0.00 | 0.00 | 22 | 1017.0 |
| 20260905191554 | 67 | 208 | 0.0 | 3.0 | 0.00 | 0.00 | 0.00 | 18 | 1017.0 |
| 20260905191052 | 67 | 138 | 0.0 | 3.0 | 0.00 | 0.00 | 0.00 | 15 | 1017.0 |
| 20260905190534 | 67 | 46 | 0.0 | 3.0 | 0.00 | 0.00 | 0.00 | 7 | 1017.0 |
| 20260905190033 | 67 | 214 | 0.0 | 1.0 | 0.00 | 0.00 | 0.00 | 1 | 1017.1 |
| 20260905185531 | 67 | 108 | 0.0 | 2.0 | 0.00 | 0.00 | 0.00 | 1 | 1017.1 |
| 20260905185029 | 67 | 98 | 0.0 | 1.0 | 0.00 | 0.00 | 0.00 | 1 | 1017.1 |
| 20260905184531 | 66 | 197 | 0.0 | 2.0 | 0.00 | 0.00 | 0.00 | 1 | 1017.0 |
| 20260905184027 | 65 | 63 | 0.0 | 1.0 | 0.00 | 0.00 | 0.00 | 1 | 1017.1 |
| 20260905183512 | 62 | 63 | 0.0 | 0.0 | 0.00 | 0.00 | 0.00 | 1 | 1017.0 |
| 20260905183006 | 61 | 329 | 0.0 | 0.0 | 0.00 | 0.00 | 0.00 | 1 | 1017.1 |
| 20260905182505 | 60 | 74 | 0.0 | 0.0 | 0.00 | 0.00 | 0.00 | 1 | 1017.2 |
| 20260905182003 | 59 | 74 | 0.0 | 0.0 | 0.00 | 0.00 | 0.00 | 1 | 1017.2 |
| 20260905181503 | 59 | 36 | 0.0 | 0.0 | 0.00 | 0.00 | 0.00 | 1 | 1017.2 |
| 20260905181000 | 59 | 63 | 0.0 | 0.0 | 0.00 | 0.00 | 0.00 | 1 | 1017.2 |
| 20260905180600 | 58 | 236 | 0.0 | 0.0 | 0.00 | 0.00 | 0.00 | 1 | 1017.2 |
| 20260905180048 | 58 | 103 | 0.0 | 0.0 | 0.00 | 0.00 | 0.00 | 1 | 1017.2 |
| 20260905175538 | 57 | 65 | 0.0 | 0.0 | 0.00 | 0.00 | 0.00 | 1 | 1017.1 |
| 20260905175037 | 57 | 63 | 0.0 | 0.0 | 0.00 | 0.00 | 0.00 | 1 | 1017.2 |
| 20260905174535 | 57 | 58 | 0.0 | 0.0 | 0.00 | 0.00 | 0.00 | 1 | 1017.1 |
| 20260905174034 | 57 | 89 | 0.0 | 1.0 | 0.00 | 0.00 | 0.00 | 1 | 1017.1 |
| 20260905173534 | 57 | 113 | 0.0 | 1.0 | 0.00 | 0.00 | 0.00 | 1 | 1017.1 |
| 20260905173014 | 57 | 98 | 0.0 | 0.0 | 0.00 | 0.00 | 0.00 | 1 | 1017.1 |
| 20260905172513 | 57 | 99 | 0.0 | 0.0 | 0.00 | 0.00 | 0.00 | 1 | 1017.1 |
| 20260905172012 | 57 | 88 | 0.0 | 0.0 | 0.00 | 0.00 | 0.00 | 1 | 1017.1 |
| 20260905171510 | 56 | 88 | 0.0 | 0.0 | 0.00 | 0.00 | 0.00 | 1 | 1017.1 |
| 20260905171008 | 56 | 88 | 0.0 | 0.0 | 0.00 | 0.00 | 0.00 | 1 | 1017.1 |
| 20260905170507 | 56 | 87 | 0.0 | 0.0 | 0.00 | 0.00 | 0.00 | 1 | 1017.2 |
| 20260905165551 | 56 | 89 | 0.0 | 0.0 | 0.00 | 0.00 | 0.00 | 1 | 1017.1 |
| 20260905165046 | 56 | 91 | 0.0 | 0.0 | 0.00 | 0.00 | 0.00 | 1 | 1017.1 |
| 20260905164544 | 56 | 94 | 0.0 | 0.0 | 0.00 | 0.00 | 0.00 | 1 | 1017.1 |
| 20260905164043 | 56 | 94 | 0.0 | 0.0 | 0.00 | 0.00 | 0.00 | 1 | 1017.1 |
| 20260905163542 | 56 | 98 | 0.0 | 0.0 | 0.00 | 0.00 | 0.00 | 1 | 1017.1 |
| 20260905163025 | 56 | 97 | 0.0 | 0.0 | 0.00 | 0.00 | 0.00 | 1 | 1017.0 |
| 20260905162522 | 56 | 98 | 0.0 | 0.0 | 0.00 | 0.00 | 0.00 | 1 | 1017.0 |
| 20260905162019 | 56 | 98 | 0.0 | 0.0 | 0.00 | 0.00 | 0.00 | 1 | 1017.0 |
| 20260905161520 | 56 | 98 | 0.0 | 0.0 | 0.00 | 0.00 | 0.00 | 1 | 1017.0 |
| 20260905161021 | 55 | 98 | 0.0 | 0.0 | 0.00 | 0.00 | 0.00 | 1 | 1017.1 |
| 20260905160518 | 55 | 228 | 0.0 | 0.0 | 0.00 | 0.00 | 0.00 | 1 | 1017.0 |
| 20260905160057 | 55 | 228 | 0.0 | 0.0 | 0.00 | 0.00 | 0.00 | 1 | 1017.0 |
| 20260905155555 | 55 | 228 | 0.0 | 0.0 | 0.00 | 0.00 | 0.00 | 1 | 1016.9 |
| 20260905155053 | 55 | 228 | 0.0 | 0.0 | 0.00 | 0.00 | 0.00 | 1 | 1016.9 |
| 20260905154552 | 55 | 228 | 0.0 | 0.0 | 0.00 | 0.00 | 0.00 | 1 | 1016.9 |
| 20260905154051 | 54 | 227 | 0.0 | 0.0 | 0.00 | 0.00 | 0.00 | 1 | 1016.9 |
| 20260905153548 | 54 | 228 | 0.0 | 0.0 | 0.00 | 0.00 | 0.00 | 1 | 1016.9 |
| 20260905153029 | 54 | 229 | 0.0 | 0.0 | 0.00 | 0.00 | 0.00 | 1 | 1016.9 |
| 20260905152628 | 54 | 228 | 0.0 | 0.0 | 0.00 | 0.00 | 0.00 | 1 | 1016.8 |
| 20260905152026 | 54 | 228 | 0.0 | 0.0 | 0.00 | 0.00 | 0.00 | 1 | 1016.8 |
| 20260905151534 | 54 | 229 | 0.0 | 0.0 | 0.00 | 0.00 | 0.00 | 1 | 1016.7 |
| 20260905151024 | 54 | 228 | 0.0 | 0.0 | 0.00 | 0.00 | 0.00 | 1 | 1016.7 |
| 20260905150522 | 54 | 228 | 0.0 | 0.0 | 0.00 | 0.00 | 0.00 | 1 | 1016.7 |
| 20260905150014 | 53 | 227 | 0.0 | 0.0 | 0.00 | 0.00 | 0.00 | 1 | 1016.7 |
| 20260905145501 | 53 | 227 | 0.0 | 0.0 | 0.00 | 0.00 | 0.00 | 1 | 1016.7 |
| 20260905145002 | 53 | 227 | 0.0 | 0.0 | 0.00 | 0.00 | 0.00 | 1 | 1016.6 |
| 20260905144600 | 53 | 228 | 0.0 | 0.0 | 0.00 | 0.00 | 0.00 | 1 | 1016.6 |
| 20260905144058 | 53 | 228 | 0.0 | 0.0 | 0.00 | 0.00 | 0.00 | 1 | 1016.6 |
| 20260905143557 | 53 | 227 | 0.0 | 0.0 | 0.00 | 0.00 | 0.00 | 1 | 1016.6 |
| 20260905143039 | 53 | 227 | 0.0 | 0.0 | 0.00 | 0.00 | 0.00 | 1 | 1016.6 |
| 20260905142540 | 0 | 0.0 | 0.0 | 0.00 | 0.00 | 0.00 | 1016.6 | ||
| 20260905142035 | 0 | 0.0 | 0.0 | 0.00 | 0.00 | 0.00 | 1016.5 | ||
| 20260905141534 | 0 | 0.0 | 0.0 | 0.00 | 0.00 | 0.00 | 1016.6 | ||
| 20260905141034 | 0 | 0.0 | 0.0 | 0.00 | 0.00 | 0.00 | 1016.5 | ||
| 20260905140532 | 0 | 0.0 | 0.0 | 0.00 | 0.00 | 0.00 | 1016.5 | ||
| 20260905140013 | 0 | 0.0 | 0.0 | 0.00 | 0.00 | 0.00 | 1016.5 | ||
| 20260905135511 | 0 | 0.0 | 0.0 | 0.00 | 0.00 | 0.00 | 1016.4 | ||
| 20260905135009 | 0 | 0.0 | 0.0 | 0.00 | 0.00 | 0.00 | 1016.4 | ||
| 20260905134508 | 0 | 0.0 | 0.0 | 0.00 | 0.00 | 0.00 | 1016.3 | ||
| 20260905134007 | 0 | 0.0 | 0.0 | 0.00 | 0.00 | 0.00 | 1016.4 | ||
| 20260905133506 | 0 | 0.0 | 0.0 | 0.00 | 0.00 | 0.00 | 1016.4 | ||
| 20260905133047 | 0 | 0.0 | 0.0 | 0.00 | 0.00 | 0.00 | 1016.3 | ||
| 20260905132545 | 0 | 0.0 | 0.0 | 0.00 | 0.00 | 0.00 | 1016.2 | ||
| 20260905132044 | 0 | 0.0 | 0.0 | 0.00 | 0.00 | 0.00 | 1016.1 | ||
| 20260905131544 | 0 | 0.0 | 0.0 | 0.00 | 0.00 | 0.00 | 1016.1 | ||
| 20260905131041 | 0 | 0.0 | 0.0 | 0.00 | 0.00 | 0.00 | 1016.1 | ||
| 20260905130540 | 0 | 0.0 | 0.0 | 0.00 | 0.00 | 0.00 | 1016.0 | ||
| 20260905130031 | 0 | 0.0 | 0.0 | 0.00 | 0.00 | 0.00 | 1016.0 | ||
| 20260905125519 | 0 | 0.0 | 0.0 | 0.00 | 0.00 | 0.00 | 1016.0 | ||
| 20260905125018 | 0 | 0.0 | 0.0 | 0.00 | 0.00 | 0.00 | 1016.0 | ||
| 20260905124517 | 0 | 0.0 | 0.0 | 0.00 | 0.00 | 0.00 | 1016.0 | ||
| 20260905124016 | 0 | 0.0 | 0.0 | 0.00 | 0.00 | 0.00 | 1016.1 | ||
| 20260905123513 | 0 | 0.0 | 0.0 | 0.00 | 0.00 | 0.00 | 1016.0 | ||
| 20260905123112 | 0 | 0.0 | 0.0 | 0.00 | 0.00 | 0.00 | 1016.0 | ||
| 20260905122554 | 0 | 0.0 | 0.0 | 0.00 | 0.00 | 0.00 | 1016.0 | ||
| 20260905122057 | 0 | 0.0 | 0.0 | 0.00 | 0.00 | 0.00 | 1016.0 | ||
| 20260905121552 | 0 | 0.0 | 0.0 | 0.00 | 0.00 | 0.00 | 1016.1 | ||
| 20260905121049 | 0 | 0.0 | 0.0 | 0.00 | 0.00 | 0.00 | 1016.1 | ||
| 20260905120549 | 0 | 0.0 | 0.0 | 0.00 | 0.00 | 0.00 | 1016.0 | ||
| 20260905120047 | 0 | 0.0 | 0.0 | 0.00 | 0.00 | 0.00 | 1016.1 | ||
| 20260905115530 | 0 | 0.0 | 0.0 | 0.00 | 0.00 | 0.00 | 1016.0 | ||
| 20260905115026 | 0 | 0.0 | 0.0 | 0.00 | 0.00 | 0.00 | 1016.0 | ||
| 20260905114525 | 0 | 0.0 | 0.0 | 0.00 | 0.00 | 0.00 | 1016.0 | ||
| 20260905114023 | 0 | 0.0 | 0.0 | 0.00 | 0.00 | 0.00 | 1016.0 | ||
| 20260905113522 | 0 | 0.0 | 0.0 | 0.00 | 0.00 | 0.00 | 1015.9 | ||
| 20260905113020 | 0 | 0.0 | 0.0 | 0.00 | 0.00 | 0.00 | 1015.8 | ||
| 20260905112502 | 0 | 0.0 | 0.0 | 0.00 | 0.00 | 0.00 | 1015.8 | ||
| 20260905112059 | 0 | 0.0 | 0.0 | 0.00 | 0.00 | 0.00 | 1015.7 | ||
| 20260905111604 | 0 | 0.0 | 0.0 | 0.00 | 0.00 | 0.00 | 1015.6 | ||
| 20260905111058 | 0 | 0.0 | 0.0 | 0.00 | 0.00 | 0.00 | 1015.7 | ||
| 20260905110555 | 0 | 0.0 | 0.0 | 0.00 | 0.00 | 0.00 | 1015.8 | ||
| 20260905110054 | 0 | 0.0 | 0.0 | 0.00 | 0.00 | 0.00 | 1015.8 | ||
| 20260905105536 | 0 | 0.0 | 0.0 | 0.00 | 0.00 | 0.00 | 1015.8 | ||
| 20260905105037 | 0 | 0.0 | 0.0 | 0.00 | 0.00 | 0.00 | 1015.7 | ||
| 20260905104533 | 0 | 0.0 | 0.0 | 0.00 | 0.00 | 0.00 | 1015.8 | ||
| 20260905104035 | 0 | 0.0 | 0.0 | 0.00 | 0.00 | 0.00 | 1015.7 | ||
| 20260905103530 | 0 | 0.0 | 0.0 | 0.00 | 0.00 | 0.00 | 1015.7 | ||
| 20260905103027 | 0 | 0.0 | 0.0 | 0.00 | 0.00 | 0.00 | 1015.7 | ||
| 20260905102511 | 0 | 0.0 | 0.0 | 0.00 | 0.00 | 0.00 | 1015.7 | ||
| 20260905102008 | 0 | 0.0 | 0.0 | 0.00 | 0.00 | 0.00 | 1015.7 | ||
| 20260905101510 | 0 | 0.0 | 0.0 | 0.00 | 0.00 | 0.00 | 1015.6 | ||
| 20260905101005 | 0 | 0.0 | 0.0 | 0.00 | 0.00 | 0.00 | 1015.6 | ||
| 20260905100504 | 0 | 0.0 | 0.0 | 0.00 | 0.00 | 0.00 | 1015.6 | ||
| 20260905100005 | 0 | 0.0 | 0.0 | 0.00 | 0.00 | 0.00 | 1015.7 | ||
| 20260905095544 | 0 | 0.0 | 0.0 | 0.00 | 0.00 | 0.00 | 1015.7 | ||
| 20260905095043 | 0 | 0.0 | 0.0 | 0.00 | 0.00 | 0.00 | 1015.7 | ||
| 20260905094541 | 0 | 0.0 | 0.0 | 0.00 | 0.00 | 0.00 | 1015.7 | ||
| 20260905094039 | 0 | 0.0 | 0.0 | 0.00 | 0.00 | 0.00 | 1015.7 | ||
| 20260905093539 | 0 | 0.0 | 0.0 | 0.00 | 0.00 | 0.00 | 1015.6 | ||
| 20260905093037 | 0 | 0.0 | 0.0 | 0.00 | 0.00 | 0.00 | 1015.7 | ||
| 20260905092518 | 0 | 0.0 | 0.0 | 0.00 | 0.00 | 0.00 | 1015.6 | ||
| 20260905092018 | 0 | 0.0 | 0.0 | 0.00 | 0.00 | 0.00 | 1015.5 | ||
| 20260905091515 | 0 | 0.0 | 0.0 | 0.00 | 0.00 | 0.00 | 1015.4 | ||
| 20260905091013 | 0 | 0.0 | 0.0 | 0.00 | 0.00 | 0.00 | 1015.4 | ||
| 20260905090512 | 0 | 0.0 | 0.0 | 0.00 | 0.00 | 0.00 | 1015.5 | ||
| 20260905090011 | 0 | 0.0 | 0.0 | 0.00 | 0.00 | 0.00 | 1015.4 | ||
| 20260905085553 | 0 | 0.0 | 0.0 | 0.00 | 0.00 | 0.00 | 1015.4 | ||
| 20260905085053 | 0 | 0.0 | 0.0 | 0.00 | 0.00 | 0.00 | 1015.4 | ||
| 20260905084549 | 0 | 0.0 | 0.0 | 0.00 | 0.00 | 0.00 | 1015.4 | ||
| 20260905084048 | 0 | 0.0 | 0.0 | 0.00 | 0.00 | 0.00 | 1015.5 | ||
| 20260905083549 | 0 | 0.0 | 0.0 | 0.00 | 0.00 | 0.00 | 1015.5 | ||
| 20260905083044 | 0 | 0.0 | 0.0 | 0.00 | 0.00 | 0.00 | 1015.4 | ||
| 20260905082528 | 0 | 0.0 | 0.0 | 0.00 | 0.00 | 0.00 | 1015.3 | ||
| 20260905082024 | 0 | 0.0 | 0.0 | 0.00 | 0.00 | 0.00 | 1015.3 | ||
| 20260905081523 | 0 | 0.0 | 0.0 | 0.00 | 0.00 | 0.00 | 1015.4 | ||
| 20260905081021 | 0 | 0.0 | 0.0 | 0.00 | 0.00 | 0.00 | 1015.4 | ||
| 20260905080520 | 0 | 0.0 | 0.0 | 0.00 | 0.00 | 0.00 | 1015.3 | ||
| 20260905080019 | 0 | 0.0 | 0.0 | 0.00 | 0.00 | 0.00 | 1015.3 | ||
| 20260905075600 | 0 | 0.0 | 0.0 | 0.00 | 0.00 | 0.00 | 1015.3 | ||
| 20260905075504 | 0 | 0.0 | 0.0 | 0.00 | 0.00 | 0.00 | 1015.3 | ||
| 20260905075058 | 0 | 0.0 | 0.0 | 0.00 | 0.00 | 0.00 | 1015.3 | ||
| 20260905074557 | 0 | 0.0 | 0.0 | 0.00 | 0.00 | 0.00 | 1015.3 | ||
| 20260905074055 | 0 | 0.0 | 0.0 | 0.00 | 0.00 | 0.00 | 1015.2 | ||
| 20260905073553 | 0 | 0.0 | 0.0 | 0.00 | 0.00 | 0.00 | 1015.3 | ||
| 20260905073052 | 0 | 0.0 | 0.0 | 0.00 | 0.00 | 0.00 | 1015.3 | ||
| 20260905072539 | 0 | 0.0 | 0.0 | 0.00 | 0.00 | 0.00 | 1015.2 | ||
| 20260905072037 | 0 | 0.0 | 0.0 | 0.00 | 0.00 | 0.00 | 1015.2 | ||
| 20260905071536 | 0 | 0.0 | 0.0 | 0.00 | 0.00 | 0.00 | 1015.1 | ||
| 20260905071033 | 0 | 0.0 | 0.0 | 0.00 | 0.00 | 0.00 | 1015.1 | ||
| 20260905070533 | 0 | 0.0 | 0.0 | 0.00 | 0.00 | 0.00 | 1015.0 | ||
| 20260905070035 | 55 | 228 | 0.0 | 0.0 | 0.00 | 0.00 | 0.00 | 1 | 1015.0 |
| 20260905065529 | 55 | 228 | 0.0 | 0.0 | 0.00 | 0.00 | 0.00 | 1 | 1015.0 |
| 20260905065028 | 55 | 228 | 0.0 | 0.0 | 0.00 | 0.00 | 0.00 | 1 | 1014.9 |
| 20260905064529 | 56 | 228 | 0.0 | 0.0 | 0.00 | 0.00 | 0.00 | 1 | 1014.9 |
| 20260905064025 | 56 | 228 | 0.0 | 0.0 | 0.00 | 0.00 | 0.00 | 1 | 1014.9 |
| 20260905063524 | 56 | 228 | 0.0 | 0.0 | 0.00 | 0.00 | 0.00 | 1 | 1014.9 |
| 20260905063022 | 56 | 228 | 0.0 | 0.0 | 0.00 | 0.00 | 0.00 | 1 | 1014.9 |
| 20260905062519 | 56 | 227 | 0.0 | 0.0 | 0.00 | 0.00 | 0.00 | 1 | 1014.9 |
| 20260905062019 | 56 | 227 | 0.0 | 0.0 | 0.00 | 0.00 | 0.00 | 1 | 1014.8 |
| 20260905061529 | 56 | 228 | 0.0 | 0.0 | 0.00 | 0.00 | 0.00 | 1 | 1014.8 |
| 20260905061016 | 56 | 228 | 0.0 | 0.0 | 0.00 | 0.00 | 0.00 | 1 | 1014.7 |
| 20260905060514 | 56 | 227 | 0.0 | 0.0 | 0.00 | 0.00 | 0.00 | 1 | 1014.7 |
| 20260905060013 | 56 | 227 | 0.0 | 0.0 | 0.00 | 0.00 | 0.00 | 1 | 1014.7 |
| 20260905055517 | 56 | 228 | 0.0 | 0.0 | 0.00 | 0.00 | 0.00 | 1 | 1014.8 |
| 20260905055010 | 56 | 228 | 0.0 | 0.0 | 0.00 | 0.00 | 0.00 | 1 | 1014.7 |
| 20260905054509 | 56 | 228 | 0.0 | 0.0 | 0.00 | 0.00 | 0.00 | 1 | 1014.7 |
| 20260905054009 | 56 | 227 | 0.0 | 0.0 | 0.00 | 0.00 | 0.00 | 1 | 1014.8 |
| 20260905053513 | 56 | 228 | 0.0 | 0.0 | 0.00 | 0.00 | 0.00 | 1 | 1014.7 |
| 20260905053009 | 56 | 229 | 0.0 | 0.0 | 0.00 | 0.00 | 0.00 | 1 | 1014.8 |
| 20260905052509 | 55 | 228 | 0.0 | 0.0 | 0.00 | 0.00 | 0.00 | 1 | 1014.7 |